Tracking 30743 objects as of 21-Jun-2025
HD Live streaming from Space Station
objects crossing your sky now

STARLINK-1185

Track STARLINK-1185 now!
10-day predictions
STARLINK-1185 is classified as:


NORAD ID: 45087
Int'l Code: 2020-006AV
Perigee: 552.5 km
Apogee: 556.2 km
Inclination: 53.1 °
Period: 95.6 minutes
Semi major axis: 6925 km
RCS: Unknown
Launch date: January 29, 2020
Source: United States (US)
Launch site: AIR FORCE EASTERN TEST RANGE (AFETR)
Your satellite tracking list
Your tracking list is empty




NASA's NSSDC Master Catalog

Two Line Element Set (TLE):
1 45087U 20006AV  25171.47433658  .00001116  00000-0  93821-4 0  9994
2 45087  53.0560 343.7487 0002679 106.0526 254.0758 15.06393306297505
Source of the keplerian elements: AFSPC